Location: Owatonna
(44.0840°N, 93.2260°W)
Time: 09:28:58
(UTC-05:00)

Daily predictions for brighter satellites

Satellite Brightness Start Highest point End
(mag) Time Altitude Azimuth Time Altitude Azimuth Time Altitude Azimuth
SL-16 R/B 3.9 21:29:05 10° NW 21:34:02 31° WSW 21:38:57 10° SSW
Cosmos 1680 Rocket 3.6 21:32:36 10° NNW 21:37:53 88° WSW 21:43:09 10° SSE
Cosmos 304 Rocket 4.0 21:36:32 10° NNW 21:41:22 76° WSW 21:46:09 10° SSE
H-2A R/B 3.9 21:38:15 10° ESE 21:41:55 19° ENE 21:45:36 10° NNE
Cosmos 1908 3.7 21:38:09 10° NNW 21:42:02 64° W 21:45:54 10° S
PSLV R/B 3.5 21:39:29 10° SSE 21:42:27 48° ENE 21:45:25 10° N
Cosmos 923 Rocket 4.5 21:37:44 10° NNW 21:42:53 62° WSW 21:47:59 10° S
USA 229 DEB 4.2 21:39:05 10° SW 21:45:59 68° NW 21:53:00 10° NE
Delta 2 Rocket 4.4 21:43:11 10° SW 21:46:02 21° S 21:48:40 10° SE
USA 229 4.2 21:39:10 10° SW 21:46:04 68° NW 21:53:06 10° NE
Cosmos 1674 3.0 21:43:35 10° SSW 21:47:25 70° W 21:51:18 10° N
SPOT 5 2.9 21:42:56 10° SSE 21:47:31 73° ENE 21:52:25 10° N
Cosmos 2151 2.9 21:46:51 10° S 21:51:02 85° E 21:55:16 10° N
Cosmos 1898 Rocket 4.1 21:47:10 10° SSE 21:51:52 36° ESE 21:56:37 10° NE
deb Chang Zheng 4 3.8 21:47:43 10° N 21:52:04 75° WNW 21:56:23 10° SSW
YAOGAN 6 3.1 21:50:14 10° SSE 21:53:43 46° ENE 21:57:10 10° N
Lacrosse 4 Rocket 4.0 21:52:19 10° NNE 21:53:46 11° NE 21:55:15 10° ENE
SPOT 1/Viking Rocket 4.0 21:49:03 10° SE 21:53:57 48° ENE 21:58:54 10° N
Cosmos 2227 Rocket 3.5 21:55:52 10° SSE 22:00:01 21° E 22:04:12 10° NE
Cosmos 1300 2.8 21:56:20 10° N 22:00:09 61° E 22:03:49 11° SSE
Cosmos 2058 2.9 21:56:38 10° S 22:00:41 65° E 22:04:46 10° NNE
Nimbus 7 Rocket 4.4 21:55:08 10° NNE 22:01:02 89° WNW 22:06:54 10° SSW
Cosmos 2150 Rocket 4.4 21:56:59 10° S 22:02:10 47° ESE 22:07:24 10° NNE
Cosmos 292 Rocket 4.2 22:00:06 10° N 22:04:44 47° ENE 22:08:39 14° SE
NOSS 3-1 (A) 3.6 21:59:43 10° SSW 22:05:23 52° ESE 22:11:40 10° NE
Cosmos 2242 Rocket 4.2 22:01:27 10° N 22:05:43 42° ENE 22:09:21 14° SE
Meteor 1-11 4.3 22:01:18 10° S 22:06:59 63° E 22:12:37 10° NNE
Sich 1 3.4 22:03:26 10° SSE 22:07:40 47° E 22:11:54 10° NNE
COSMOS 2455 4.4 22:03:20 10° NNW 22:08:16 25° NE 22:13:10 10° E
Cosmos 1437 3.9 22:07:37 10° SSW 22:10:47 44° WNW 22:13:58 10° N
Cosmos 1151 Rocket 4.5 22:08:03 10° NNW 22:12:00 36° W 22:15:58 10° SSW
Cosmos 1633 Rocket 3.3 22:08:32 10° SSE 22:12:45 50° E 22:17:00 10° NNE
SL-16 R/B 4.0 22:09:02 10° N 22:13:13 21° NE 22:17:24 10° E
Cosmos 2333 Rocket 2.9 22:09:16 10° NNW 22:14:48 45° ENE 22:19:24 15° SE
USA 245 2.1 22:15:04 20° SSE 22:16:32 61° ENE 22:18:47 10° N
MetOp-A 4.3 22:12:39 10° S 22:17:59 75° WSW 22:23:22 10° NNW
Cosmos 1455 3.5 22:19:15 10° NNE 22:22:29 25° ENE 22:24:28 17° ESE
BREEZE-M DEB (TANK) 3.0 22:20:54 10° NW 22:22:47 34° NNE 22:25:16 10° E
ERBS 3.3 22:23:14 10° S 22:26:15 27° SE 22:29:16 10° ENE
COSMOS 2428 3.1 22:21:02 10° NNW 22:26:39 62° WSW 22:31:38 13° S
Cosmos 2297 Rocket 3.3 22:23:49 16° SE 22:26:48 25° ESE 22:31:17 10° NE
ARGOS 3.2 22:22:17 14° SSE 22:26:56 79° ENE 22:32:20 10° NNW
ATLAS 2AS CENTAUR R/B 3.5 22:21:18 10° S 22:27:54 36° ESE 22:34:57 10° NE
Envisat 4.3 22:24:15 10° SSW 22:28:56 37° W 22:33:39 10° NNW
Cosmos 1805 Rocket 4.0 22:24:37 10° SSW 22:29:02 64° W 22:33:28 10° N
Terra 2.7 22:26:41 17° SE 22:29:50 36° ENE 22:34:11 10° N
Cosmos 2219 Rocket 2.2 22:24:57 10° NNW 22:30:35 75° ENE 22:34:43 19° SSE
USA 32 4.0 22:27:53 10° N 22:33:10 72° E 22:37:17 17° SSE
Cosmos 1726 2.5 22:31:42 10° NNW 22:35:27 63° W 22:38:27 15° S
IGS 5A 4.3 22:36:25 20° SE 22:38:43 36° ENE 22:42:33 10° N
ATLAS 3B R/B 3.5 22:32:54 10° NNW 22:39:41 44° NE 22:45:16 13° ESE
SL-08 RB Rocket 3.6 22:38:56 19° SSE 22:42:10 88° WSW 22:46:42 10° NNW
Cosmos 220 Rocket 3.9 22:41:14 10° SSW 22:45:37 77° ESE 22:50:03 10° NNE
OAO 2 Rocket 4.3 22:41:36 10° SW 22:46:07 29° S 22:48:06 23° SE
Cosmos 1869 3.9 22:44:54 10° N 22:48:47 42° ENE 22:50:34 26° SE
Cosmos 1937 Rocket 3.4 22:43:43 10° SSW 22:48:57 84° ESE 22:54:10 10° NNE
Tiangong 1 1.1 22:46:48 10° WSW 22:49:50 53° SSE 22:51:01 31° ESE
NOSS 3-1 (C) 3.9 22:45:34 10° SW 22:51:27 65° NW 22:58:04 10° NNE
Cosmos 1980 3.7 22:45:46 10° NNW 22:51:27 79° ENE 22:55:01 24° SSE
Cosmos 1666 Rocket 4.4 22:47:33 10° SSW 22:51:49 50° WNW 22:56:09 10° N
Cosmos 1241 Rocket 4.5 22:46:39 10° SSW 22:52:41 60° ESE 22:58:51 10° NE
Meteor 1-4 Rocket 3.2 22:49:33 10° NNW 22:53:14 52° W 22:55:32 20° SSW
Meteor 2-10 4.3 22:48:43 10° NNW 22:54:28 84° W 22:58:34 20° S
CZ-4 R/B 4.0 22:51:33 10° N 22:56:30 76° WNW 23:01:18 10° SSW
Cosmos 990 Rocket 3.9 22:53:35 13° S 22:58:05 73° ESE 23:03:14 10° NNE
CZ-4C R/B 3.0 22:57:18 30° S 22:58:55 74° WSW 23:02:24 10° NNW
BREEZE-M DEB (TANK) 4.5 23:00:59 21° ESE 23:00:59 21° ESE 23:05:07 10° ENE
Cosmos 1271 Rocket 3.5 22:57:41 10° NNW 23:01:23 47° W 23:03:46 20° SSW
Nadezhda 1 Rocket 3.9 22:56:53 10° N 23:03:00 89° E 23:07:09 22° S
Cosmos 2237 Rocket 2.2 22:58:00 10° NNW 23:03:45 90° ENE 23:07:04 26° SSE
Cosmos 1470 Rocket 3.5 23:02:37 22° S 23:05:24 88° W 23:09:45 10° N
Cosmos 1933 Rocket 3.5 23:03:37 22° S 23:06:30 89° W 23:11:00 10° N
Cosmos 1703 Rocket 4.5 23:04:39 10° N 23:08:40 35° ENE 23:10:13 27° ESE
Cosmos 2082 3.6 23:04:50 12° SSW 23:10:06 76° ESE 23:15:50 10° NNE
Iridium 2 4.2 23:08:26 20° SSW 23:10:53 56° W 23:14:42 10° N
Cosmos 1703 4.1 23:07:52 15° SSW 23:10:58 49° WNW 23:14:47 10° N
Cosmos 192 4.3 23:08:29 10° NNW 23:13:25 86° ENE 23:15:46 32° SSE
BREEZE-M DEB (TANK) 4.5 22:57:22 10° W 23:14:11 60° N 23:18:25 10° E
NOSS 0 Rocket 4.3 23:11:45 10° NW 23:17:45 56° WSW 23:21:22 24° S
Cosmos 1626 2.1 23:16:07 32° SSW 23:17:47 80° W 23:21:34 10° N
Cosmos 1745 Rocket 4.3 23:12:01 12° SSW 23:17:48 68° W 23:23:57 10° N
Cosmos 1269 Rocket 4.2 23:12:40 10° NNW 23:17:57 61° ENE 23:20:28 30° SE
H-2A R/B 2.3 23:17:35 25° S 23:20:43 69° WSW 23:26:11 10° NNW
Cosmos 2221 Rocket 4.1 23:18:40 10° N 23:23:06 48° ENE 23:24:36 34° SE
Cosmos 1709 Rocket 4.0 23:22:36 28° SSE 23:25:54 65° E 23:31:57 10° NNE
SeaSat 1 3.6 23:26:25 20° ESE 23:29:08 34° NE 23:33:34 10° N
Lacrosse 4 Rocket 1.7 23:28:56 10° NNW 23:33:21 67° ENE 23:34:53 39° SE
Cosmos 389 Rocket 3.5 23:31:40 10° N 23:34:57 33° ENE 23:35:18 32° E
CZ-4B R/B 3.9 23:37:08 12° ENE 23:37:46 12° ENE 23:39:12 10° NE
Cosmos 1048 Rocket 4.1 23:33:36 10° NNW 23:38:59 75° ENE 23:41:10 37° SE
Cosmos 1125 Rocket 3.5 23:37:09 32° S 23:39:40 73° ESE 23:44:59 10° NNE
Cosmos 2227 Rocket 2.7 23:38:01 10° SW 23:43:36 59° WNW 23:49:13 10° NNE
NOSS 2-3 (D) 4.2 23:49:47 42° SSE 23:50:50 49° ESE 23:56:15 10° NE
Cosmos 1933 3.4 23:48:07 10° NNW 23:52:10 70° W 23:53:05 50° SSW
Cosmos 158 Rocket 4.4 23:49:09 10° NNW 23:54:21 53° ENE 23:56:13 35° ESE
